Powrót do katalogu

ELECTRON KICK STAGE R/B

AktywnyPO
NORAD 57393·ROCKET BODY·🇺🇸 United States

Wystrzelony Jul 18, 2023 z Rocket Lab Launch Complex 1

Loading…

Następne Przeloty (najbliższe 24 godziny)

TLE

ŚwieżeSource: Space-Track

Epoka: Sep 14, 2026, 06:13 UTC

1 57393U 23100H   26257.25938021  .00006680  00000-0  55157-3 0  9991
2 57393  99.3254 187.9515 0299291 315.3259  42.4177 14.70526065168351

Śledź ELECTRON KICK STAGE R/B w czasie rzeczywistym z AllMySat

Download on the App Store